DPV964 SBFL-SBCX

Flight info

Callsign DPV964
Flight time 0h 37m
Altitude 28000
Route UGREV DCT VUKMO
Aircraft A20N/M-SDE2E3FGHIRWXY/LB1

Departure

Time 2026-04-16 23:56
Airport Hercílio Luz International Airport (SBFL)

Arrival

Time 2026-04-17 00:33
Airport Hugo Cantergiani Regional Airport (SBCX)
Time Latitude Longitude Altitude Speed Heading
2026-04-16 23:24 -27.67290 -48.54542 27 ft 0 kts 212°
2026-04-16 23:47 -27.67281 -48.54536 26 ft 3 kts 207°
2026-04-16 23:47 -27.67263 -48.54527 26 ft 3 kts 188°
2026-04-16 23:47 -27.67244 -48.54527 26 ft 3 kts 153°
2026-04-16 23:47 -27.67233 -48.54537 26 ft 1 kts 122°
2026-04-16 23:48 -27.67230 -48.54541 26 ft 0 kts 122°
2026-04-16 23:50 -27.67231 -48.54539 27 ft 2 kts 122°
2026-04-16 23:50 -27.67253 -48.54500 26 ft 10 kts 122°
2026-04-16 23:50 -27.67298 -48.54398 26 ft 12 kts 86°
2026-04-16 23:50 -27.67261 -48.54361 26 ft 9 kts 36°
2026-04-16 23:51 -27.67213 -48.54304 26 ft 8 kts 96°
2026-04-16 23:51 -27.67241 -48.54233 26 ft 12 kts 120°
2026-04-16 23:51 -27.67288 -48.54146 26 ft 14 kts 120°
2026-04-16 23:51 -27.67345 -48.54041 26 ft 17 kts 121°
2026-04-16 23:52 -27.67410 -48.53919 26 ft 19 kts 121°
2026-04-16 23:52 -27.67483 -48.53785 26 ft 21 kts 121°
2026-04-16 23:52 -27.67567 -48.53636 26 ft 23 kts 122°
2026-04-16 23:52 -27.67657 -48.53478 26 ft 25 kts 122°
2026-04-16 23:53 -27.67750 -48.53313 26 ft 26 kts 123°
2026-04-16 23:53 -27.67805 -48.53174 26 ft 12 kts 73°
2026-04-16 23:53 -27.67775 -48.53133 26 ft 0 kts 40°
2026-04-16 23:54 -27.67772 -48.53131 26 ft 2 kts 39°
2026-04-16 23:54 -27.67741 -48.53102 27 ft 10 kts 39°
2026-04-16 23:54 -27.67672 -48.53084 27 ft 12 kts 327°
2026-04-16 23:54 -27.67644 -48.53131 27 ft 0 kts 301°
2026-04-16 23:55 -27.67628 -48.53162 27 ft 15 kts 301°
2026-04-16 23:55 -27.67444 -48.53502 26 ft 87 kts 301°
2026-04-16 23:55 -27.67026 -48.54280 29 ft 143 kts 301°
2026-04-16 23:56 -27.66501 -48.55274 526 ft 144 kts 304°
2026-04-16 23:56 -27.65982 -48.56232 1108 ft 146 kts 304°
2026-04-16 23:56 -27.65442 -48.57219 1723 ft 148 kts 305°
2026-04-16 23:56 -27.64885 -48.58252 2206 ft 162 kts 306°
2026-04-16 23:57 -27.64265 -48.59396 2611 ft 179 kts 306°
2026-04-16 23:57 -27.63580 -48.60659 2933 ft 201 kts 306°
2026-04-16 23:57 -27.62811 -48.62079 3308 ft 223 kts 305°
2026-04-16 23:57 -27.61963 -48.63651 3772 ft 245 kts 304°
2026-04-16 23:58 -27.61048 -48.65351 4467 ft 258 kts 304°
2026-04-16 23:58 -27.60125 -48.67070 5390 ft 262 kts 303°
2026-04-16 23:58 -27.59174 -48.68834 6377 ft 263 kts 302°
2026-04-16 23:58 -27.58202 -48.70631 7233 ft 268 kts 301°
2026-04-16 23:59 -27.57230 -48.72428 7738 ft 273 kts 301°
2026-04-16 23:59 -27.56238 -48.74263 7939 ft 275 kts 301°
2026-04-16 23:59 -27.55339 -48.76157 8018 ft 275 kts 288°
2026-04-16 23:59 -27.55141 -48.78288 8031 ft 277 kts 263°
2026-04-17 00:00 -27.55807 -48.80325 8034 ft 282 kts 238°
2026-04-17 00:00 -27.56674 -48.81412 8030 ft 285 kts 220°
2026-04-17 00:00 -27.58460 -48.82415 8039 ft 291 kts 197°
2026-04-17 00:00 -27.60433 -48.82953 8047 ft 292 kts 195°
2026-04-17 00:01 -27.62414 -48.83454 8049 ft 292 kts 195°
2026-04-17 00:01 -27.64400 -48.83960 8047 ft 292 kts 195°
2026-04-17 00:01 -27.66383 -48.84476 8046 ft 293 kts 195°
2026-04-17 00:01 -27.68366 -48.85000 8050 ft 292 kts 195°
2026-04-17 00:02 -27.70344 -48.85529 8056 ft 294 kts 196°
2026-04-17 00:02 -27.72343 -48.86068 8048 ft 293 kts 196°
2026-04-17 00:02 -27.74315 -48.86598 8049 ft 290 kts 196°
2026-04-17 00:02 -27.76300 -48.87082 8069 ft 294 kts 192°
2026-04-17 00:03 -27.78323 -48.87489 8473 ft 296 kts 192°
2026-04-17 00:03 -27.80346 -48.87898 9452 ft 294 kts 193°
2026-04-17 00:03 -27.82364 -48.88312 10289 ft 299 kts 193°
2026-04-17 00:03 -27.84481 -48.88750 10655 ft 320 kts 193°
2026-04-17 00:04 -27.86751 -48.89216 10892 ft 344 kts 193°
2026-04-17 00:04 -27.89143 -48.89702 11527 ft 351 kts 192°
2026-04-17 00:04 -27.91567 -48.90191 12287 ft 355 kts 193°
2026-04-17 00:04 -27.94014 -48.90685 13023 ft 360 kts 193°
2026-04-17 00:05 -27.96497 -48.91189 13775 ft 365 kts 193°
2026-04-17 00:05 -27.99010 -48.91702 14467 ft 368 kts 193°
2026-04-17 00:05 -28.01529 -48.92215 15177 ft 370 kts 193°
2026-04-17 00:05 -28.04079 -48.92735 15858 ft 373 kts 193°
2026-04-17 00:06 -28.06643 -48.93257 16503 ft 376 kts 193°
2026-04-17 00:06 -28.09236 -48.93786 17166 ft 379 kts 193°
2026-04-17 00:06 -28.11844 -48.94319 17830 ft 382 kts 194°
2026-04-17 00:06 -28.14466 -48.94857 18443 ft 384 kts 193°
2026-04-17 00:07 -28.17107 -48.95399 18990 ft 387 kts 194°
2026-04-17 00:07 -28.19651 -48.96336 19547 ft 383 kts 210°
2026-04-17 00:07 -28.21767 -48.97948 20082 ft 380 kts 225°
2026-04-17 00:07 -28.23499 -49.00282 20607 ft 380 kts 240°
2026-04-17 00:08 -28.24626 -49.02991 21124 ft 381 kts 248°
2026-04-17 00:08 -28.25643 -49.05780 21652 ft 384 kts 248°
2026-04-17 00:08 -28.26669 -49.08586 22172 ft 387 kts 248°
2026-04-17 00:08 -28.27706 -49.11417 22712 ft 390 kts 248°
2026-04-17 00:09 -28.28756 -49.14274 23214 ft 393 kts 248°
2026-04-17 00:09 -28.29809 -49.17141 23709 ft 395 kts 248°
2026-04-17 00:09 -28.30871 -49.20032 24139 ft 398 kts 248°
2026-04-17 00:09 -28.31939 -49.22940 24586 ft 400 kts 248°
2026-04-17 00:10 -28.33012 -49.25864 25020 ft 403 kts 248°
2026-04-17 00:10 -28.34092 -49.28809 25472 ft 404 kts 248°
2026-04-17 00:10 -28.35174 -49.31764 25908 ft 407 kts 248°
2026-04-17 00:10 -28.36263 -49.34738 26342 ft 409 kts 248°
2026-04-17 00:11 -28.37352 -49.37719 26742 ft 411 kts 248°
2026-04-17 00:11 -28.38453 -49.40730 27165 ft 413 kts 248°
2026-04-17 00:11 -28.39554 -49.43747 27562 ft 415 kts 248°
2026-04-17 00:11 -28.40663 -49.46785 27836 ft 417 kts 248°
2026-04-17 00:12 -28.41773 -49.49831 27922 ft 418 kts 248°
2026-04-17 00:12 -28.42886 -49.52886 27924 ft 416 kts 248°
2026-04-17 00:12 -28.43977 -49.55883 27928 ft 416 kts 248°
2026-04-17 00:12 -28.45082 -49.58922 27931 ft 416 kts 248°
2026-04-17 00:13 -28.46183 -49.61953 27935 ft 415 kts 248°
2026-04-17 00:13 -28.47286 -49.64991 27933 ft 416 kts 248°
2026-04-17 00:13 -28.48388 -49.68031 27935 ft 416 kts 248°
2026-04-17 00:13 -28.49485 -49.71058 27939 ft 415 kts 248°
2026-04-17 00:14 -28.50586 -49.74097 27939 ft 415 kts 248°
2026-04-17 00:14 -28.51684 -49.77133 27939 ft 415 kts 248°
2026-04-17 00:14 -28.52784 -49.80173 27942 ft 415 kts 249°
2026-04-17 00:14 -28.53878 -49.83201 27944 ft 414 kts 249°
2026-04-17 00:15 -28.54975 -49.86238 27944 ft 415 kts 249°
2026-04-17 00:15 -28.56070 -49.89275 27944 ft 415 kts 249°
2026-04-17 00:15 -28.57164 -49.92313 27948 ft 415 kts 249°
2026-04-17 00:15 -28.58259 -49.95351 27949 ft 415 kts 249°
2026-04-17 00:16 -28.59352 -49.98390 27945 ft 415 kts 249°
2026-04-17 00:16 -28.60445 -50.01432 27950 ft 415 kts 249°
2026-04-17 00:16 -28.61539 -50.04477 27946 ft 415 kts 249°
2026-04-17 00:16 -28.62629 -50.07515 27943 ft 415 kts 249°
2026-04-17 00:17 -28.63721 -50.10560 27942 ft 415 kts 249°
2026-04-17 00:17 -28.64811 -50.13604 27936 ft 416 kts 249°
2026-04-17 00:17 -28.65904 -50.16657 27675 ft 417 kts 249°
2026-04-17 00:17 -28.66925 -50.19743 27031 ft 419 kts 252°
2026-04-17 00:18 -28.67867 -50.22920 26041 ft 427 kts 252°
2026-04-17 00:18 -28.68810 -50.26126 25061 ft 427 kts 252°
2026-04-17 00:18 -28.69745 -50.29314 24104 ft 423 kts 252°
2026-04-17 00:18 -28.70675 -50.32479 23312 ft 416 kts 252°
2026-04-17 00:19 -28.71565 -50.35504 22755 ft 401 kts 252°
2026-04-17 00:19 -28.72447 -50.38505 22185 ft 388 kts 252°
2026-04-17 00:19 -28.73294 -50.41385 21627 ft 377 kts 252°
2026-04-17 00:19 -28.74119 -50.44197 21089 ft 374 kts 252°
2026-04-17 00:20 -28.74929 -50.46964 20549 ft 372 kts 252°
2026-04-17 00:20 -28.75746 -50.49755 19994 ft 370 kts 252°
2026-04-17 00:20 -28.76560 -50.52536 19451 ft 369 kts 252°
2026-04-17 00:20 -28.77371 -50.55309 18880 ft 369 kts 252°
2026-04-17 00:21 -28.78179 -50.58074 18314 ft 368 kts 253°
2026-04-17 00:21 -28.78994 -50.60865 17765 ft 364 kts 253°
2026-04-17 00:21 -28.79779 -50.63551 17235 ft 361 kts 253°
2026-04-17 00:21 -28.80582 -50.66300 16679 ft 359 kts 253°
2026-04-17 00:22 -28.82136 -50.71635 15610 ft 354 kts 253°
2026-04-17 00:22 -28.82910 -50.74295 15050 ft 353 kts 253°
2026-04-17 00:22 -28.83680 -50.76942 14543 ft 351 kts 254°
2026-04-17 00:23 -28.84449 -50.79593 13994 ft 350 kts 254°
2026-04-17 00:23 -28.85214 -50.82229 13423 ft 350 kts 254°
2026-04-17 00:23 -28.85977 -50.84857 12913 ft 346 kts 254°
2026-04-17 00:23 -28.86726 -50.87447 12388 ft 343 kts 255°
2026-04-17 00:24 -28.87470 -50.90016 11872 ft 340 kts 255°
2026-04-17 00:24 -28.88212 -50.92580 11351 ft 338 kts 255°
2026-04-17 00:24 -28.88944 -50.95115 10839 ft 336 kts 255°
2026-04-17 00:24 -28.89673 -50.97642 10318 ft 334 kts 255°
2026-04-17 00:25 -28.90390 -51.00120 10166 ft 322 kts 255°
2026-04-17 00:25 -28.91075 -51.02489 10027 ft 306 kts 256°
2026-04-17 00:25 -28.91724 -51.04724 9820 ft 289 kts 256°
2026-04-17 00:25 -28.92319 -51.06797 9349 ft 284 kts 256°
2026-04-17 00:26 -28.92930 -51.08943 8944 ft 283 kts 256°
2026-04-17 00:26 -28.93541 -51.11078 8575 ft 281 kts 256°
2026-04-17 00:26 -28.94146 -51.13188 8204 ft 280 kts 256°
2026-04-17 00:26 -28.94750 -51.15297 7831 ft 280 kts 256°
2026-04-17 00:27 -28.95357 -51.17412 7464 ft 279 kts 256°
2026-04-17 00:27 -28.95953 -51.19489 7089 ft 278 kts 256°
2026-04-17 00:27 -28.96560 -51.21605 6715 ft 276 kts 256°
2026-04-17 00:27 -28.97149 -51.23669 6416 ft 272 kts 256°
2026-04-17 00:28 -28.97737 -51.25713 6103 ft 269 kts 254°
2026-04-17 00:28 -28.98692 -51.27497 5855 ft 271 kts 229°
2026-04-17 00:28 -29.00260 -51.28676 5694 ft 269 kts 210°
2026-04-17 00:28 -29.01922 -51.29575 5592 ft 259 kts 210°
2026-04-17 00:29 -29.03512 -51.30436 5509 ft 247 kts 211°
2026-04-17 00:29 -29.05018 -51.31258 5389 ft 232 kts 211°
2026-04-17 00:29 -29.06501 -51.31859 5272 ft 224 kts 189°
2026-04-17 00:29 -29.07963 -51.31553 5188 ft 206 kts 156°
2026-04-17 00:30 -29.09016 -51.30569 5064 ft 184 kts 137°
2026-04-17 00:30 -29.09888 -51.29595 4892 ft 168 kts 138°
2026-04-17 00:30 -29.10713 -51.28691 4552 ft 165 kts 139°
2026-04-17 00:30 -29.11547 -51.27786 4237 ft 164 kts 138°
2026-04-17 00:31 -29.12357 -51.26902 4081 ft 160 kts 138°
2026-04-17 00:31 -29.13167 -51.26012 4126 ft 161 kts 139°
2026-04-17 00:31 -29.13976 -51.25119 4099 ft 164 kts 138°
2026-04-17 00:31 -29.14780 -51.24227 3987 ft 158 kts 138°
2026-04-17 00:32 -29.15585 -51.23343 3644 ft 162 kts 136°
2026-04-17 00:32 -29.16386 -51.22459 3384 ft 158 kts 136°
2026-04-17 00:32 -29.17157 -51.21604 3158 ft 151 kts 135°
2026-04-17 00:32 -29.17907 -51.20781 2921 ft 148 kts 135°
2026-04-17 00:33 -29.18633 -51.19968 2637 ft 142 kts 134°
2026-04-17 00:33 -29.19322 -51.19198 2474 ft 137 kts 135°
2026-04-17 00:33 -29.19818 -51.18646 2473 ft 43 kts 135°
2026-04-17 00:33 -29.19911 -51.18541 2469 ft 12 kts 150°
2026-04-17 00:34 -29.19984 -51.18464 2471 ft 17 kts 136°
2026-04-17 00:34 -29.20068 -51.18371 2468 ft 18 kts 136°
2026-04-17 00:34 -29.20164 -51.18266 2465 ft 20 kts 137°
2026-04-17 00:34 -29.20268 -51.18153 2464 ft 22 kts 138°
2026-04-17 00:35 -29.20314 -51.18092 2466 ft 1 kts 38°
2026-04-17 00:35 -29.20309 -51.18096 2467 ft 1 kts 333°
2026-04-17 00:35 -29.20282 -51.18133 2464 ft 11 kts 310°
2026-04-17 00:35 -29.20210 -51.18215 2467 ft 16 kts 316°
2026-04-17 00:36 -29.20121 -51.18312 2465 ft 19 kts 315°
2026-04-17 00:36 -29.20023 -51.18421 2467 ft 20 kts 315°
2026-04-17 00:36 -29.19925 -51.18529 2469 ft 20 kts 316°
2026-04-17 00:36 -29.19820 -51.18646 2472 ft 22 kts 316°
2026-04-17 00:37 -29.19711 -51.18768 2469 ft 23 kts 315°
2026-04-17 00:37 -29.19619 -51.18832 2449 ft 12 kts 18°
2026-04-17 00:37 -29.19569 -51.18754 2449 ft 11 kts 72°
2026-04-17 00:37 -29.19540 -51.18716 2447 ft 0 kts 46°